• In Belarus
  • List of Countries
  • For 7 days
  • Water Temperature
  • Satellite Maps
  • Weather Map
  • Weather Widgets
  • user-avatar
    Login

    Hourly Weather Juzhno-Kuril'sk

    Today, 19 February, Monday

    Time Temperature Precipitation Wind Pressure Humidity
    00:00 -20°C° 0 mm 5 mps 757 mmHg 90%
    01:00 -20°C° 0 mm 5 mps 757 mmHg 90%
    02:00 -19°C° 0 mm 5 mps 757 mmHg 91%
    03:00 -18°C° 0 mm 5 mps 757 mmHg 91%
    04:00 -16°C° 0 mm 4 mps 757 mmHg 91%
    05:00 -18°C° 0 mm 5 mps 758 mmHg 91%
    06:00 -18°C° 0 mm 5 mps 758 mmHg 92%
    07:00 -18°C° 0 mm 5 mps 758 mmHg 93%
    08:00 -16°C° 0 mm 4 mps 758 mmHg 91%
    09:00 -15°C° 0 mm 4 mps 758 mmHg 90%
    10:00 -12°C° 0 mm 4 mps 758 mmHg 88%
    11:00 -10°C° 0 mm 3 mps 757 mmHg 85%
    12:00 -9°C° 0 mm 3 mps 757 mmHg 81%
    13:00 -7°C° 0 mm 2 mps 757 mmHg 78%
    14:00 -7°C° 0 mm 2 mps 756 mmHg 78%
    15:00 -6°C° 0 mm 2 mps 756 mmHg 79%
    16:00 -6°C° 0 mm 2 mps 755 mmHg 79%
    17:00 -8°C° 0 mm 3 mps 755 mmHg 81%
    18:00 -9°C° 0 mm 4 mps 755 mmHg 83%
    19:00 -9°C° 0 mm 4 mps 755 mmHg 86%
    20:00 -11°C° 0.1 mm 5 mps 755 mmHg 85%
    21:00 -12°C° 0.1 mm 5 mps 755 mmHg 85%
    22:00 -12°C° 0.1 mm 5 mps 755 mmHg 84%
    23:00 -13°C° 0 mm 5 mps 754 mmHg 84%

    Tomorrow, 20 February, Tuesday

    Time Temperature Precipitation Wind Pressure Humidity
    00:00 -13°C° 0 mm 5 mps 754 mmHg 83%
    01:00 -14°C° 0 mm 5 mps 754 mmHg 83%
    02:00 -14°C° 0 mm 5 mps 754 mmHg 81%
    03:00 -14°C° 0 mm 5 mps 754 mmHg 80%
    04:00 -15°C° 0 mm 5 mps 754 mmHg 79%
    05:00 -14°C° 0 mm 5 mps 754 mmHg 79%
    06:00 -14°C° 0 mm 5 mps 754 mmHg 79%
    07:00 -14°C° 0 mm 5 mps 753 mmHg 78%
    08:00 -14°C° 0 mm 6 mps 754 mmHg 79%
    09:00 -12°C° 0 mm 6 mps 754 mmHg 80%
    10:00 -10°C° 0 mm 6 mps 754 mmHg 81%
    11:00 -10°C° 0.1 mm 6 mps 753 mmHg 77%
    12:00 -9°C° 0.1 mm 6 mps 753 mmHg 73%
    13:00 -8°C° 0.1 mm 6 mps 753 mmHg 69%
    14:00 -9°C° 0.1 mm 6 mps 753 mmHg 73%
    15:00 -9°C° 0.1 mm 6 mps 753 mmHg 77%
    16:00 -9°C° 0.1 mm 6 mps 752 mmHg 81%
    17:00 -10°C° 0 mm 4 mps 753 mmHg 84%
    18:00 -10°C° 0 mm 3 mps 753 mmHg 86%
    19:00 -10°C° 0 mm 2 mps 753 mmHg 89%
    20:00 -12°C° 0.1 mm 3 mps 753 mmHg 87%
    21:00 -12°C° 0.1 mm 3 mps 753 mmHg 85%
    22:00 -12°C° 0.1 mm 4 mps 753 mmHg 83%
    23:00 -14°C° 0 mm 5 mps 753 mmHg 85%

    Day after tomorrow, 21 February, Wednesday

    Time Temperature Precipitation Wind Pressure Humidity
    00:00 -14°C° 0 mm 5 mps 753 mmHg 86%
    01:00 -16°C° 0 mm 6 mps 753 mmHg 88%
    02:00 -15°C° 0 mm 5 mps 753 mmHg 87%
    03:00 -15°C° 0 mm 5 mps 753 mmHg 86%
    04:00 -16°C° 0 mm 4 mps 753 mmHg 84%
    05:00 -15°C° 0 mm 5 mps 753 mmHg 83%
    06:00 -16°C° 0 mm 6 mps 753 mmHg 81%
    07:00 -17°C° 0 mm 7 mps 753 mmHg 79%
    08:00 -15°C° 0 mm 7 mps 753 mmHg 77%
    09:00 -14°C° 0 mm 7 mps 753 mmHg 75%
    10:00 -13°C° 0 mm 7 mps 754 mmHg 74%
    11:00 -12°C° 0.1 mm 7 mps 753 mmHg 73%
    12:00 -12°C° 0.1 mm 7 mps 753 mmHg 71%
    13:00 -11°C° 0.1 mm 7 mps 753 mmHg 70%
    14:00 -10°C° 0.1 mm 6 mps 753 mmHg 71%
    15:00 -11°C° 0.1 mm 6 mps 753 mmHg 73%
    16:00 -11°C° 0.1 mm 6 mps 753 mmHg 74%
    17:00 -12°C° 0 mm 6 mps 754 mmHg 76%
    18:00 -14°C° 0 mm 6 mps 754 mmHg 78%
    19:00 -15°C° 0 mm 6 mps 755 mmHg 80%
    20:00 -15°C° 0 mm 6 mps 755 mmHg 80%
    21:00 -16°C° 0 mm 6 mps 756 mmHg 80%
    22:00 -17°C° 0 mm 7 mps 756 mmHg 80%
    23:00 -17°C° 0 mm 6 mps 756 mmHg 82%

    22 February, Thursday

    Time Temperature Precipitation Wind Pressure Humidity
    00:00 -17°C° 0 mm 6 mps 757 mmHg 83%
    01:00 -17°C° 0 mm 5 mps 757 mmHg 84%
    02:00 -18°C° 0 mm 5 mps 757 mmHg 83%
    03:00 -17°C° 0 mm 4 mps 758 mmHg 82%
    04:00 -17°C° 0 mm 4 mps 758 mmHg 81%
    05:00 -17°C° 0 mm 4 mps 758 mmHg 79%
    06:00 -17°C° 0 mm 3 mps 759 mmHg 77%
    07:00 -17°C° 0 mm 3 mps 759 mmHg 75%
    08:00 -16°C° 0 mm 4 mps 759 mmHg 74%
    09:00 -14°C° 0 mm 4 mps 760 mmHg 73%
    10:00 -12°C° 0 mm 5 mps 760 mmHg 72%
    11:00 -11°C° 0 mm 5 mps 760 mmHg 71%
    12:00 -10°C° 0 mm 5 mps 760 mmHg 69%
    13:00 -9°C° 0 mm 6 mps 760 mmHg 68%
    14:00 -8°C° 0 mm 5 mps 760 mmHg 71%
    15:00 -8°C° 0 mm 4 mps 760 mmHg 74%
    16:00 -7°C° 0 mm 3 mps 760 mmHg 77%
    17:00 -8°C° 0 mm 3 mps 761 mmHg 78%
    18:00 -9°C° 0 mm 3 mps 761 mmHg 79%
    19:00 -10°C° 0 mm 3 mps 762 mmHg 81%
    20:00 -10°C° 0 mm 3 mps 762 mmHg 79%
    21:00 -11°C° 0 mm 4 mps 762 mmHg 77%
    22:00 -11°C° 0 mm 4 mps 762 mmHg 76%
    23:00 -11°C° 0 mm 5 mps 762 mmHg 77%

    23 February, Friday

    Time Temperature Precipitation Wind Pressure Humidity
    00:00 -11°C° 0 mm 5 mps 761 mmHg 78%
    01:00 -10°C° 0 mm 6 mps 761 mmHg 79%
    02:00 -9°C° 0.1 mm 6 mps 761 mmHg 81%
    03:00 -9°C° 0.1 mm 6 mps 761 mmHg 83%
    04:00 -8°C° 0.1 mm 6 mps 761 mmHg 85%
    05:00 -8°C° 0.3 mm 6 mps 761 mmHg 88%
    06:00 -6°C° 0.3 mm 6 mps 761 mmHg 90%
    07:00 -6°C° 0.3 mm 6 mps 761 mmHg 92%
    08:00 -6°C° 0.2 mm 5 mps 762 mmHg 89%
    09:00 -4°C° 0.2 mm 4 mps 762 mmHg 85%
    10:00 -4°C° 0.2 mm 4 mps 762 mmHg 82%
    11:00 -2°C° 0 mm 3 mps 762 mmHg 80%
    12:00 -2°C° 0 mm 3 mps 762 mmHg 78%
    13:00 -2°C° 0 mm 2 mps 762 mmHg 76%
    14:00 -2°C° 0 mm 2 mps 762 mmHg 77%
    15:00 -2°C° 0 mm 2 mps 762 mmHg 78%
    16:00 -2°C° 0 mm 2 mps 762 mmHg 79%
    17:00 -4°C° 0 mm 3 mps 762 mmHg 81%
    18:00 -5°C° 0 mm 3 mps 762 mmHg 83%
    19:00 -7°C° 0 mm 4 mps 762 mmHg 86%
    20:00 -7°C° 0 mm 4 mps 761 mmHg 88%
    21:00 -5°C° 0 mm 4 mps 761 mmHg 90%
    22:00 -6°C° 0 mm 5 mps 761 mmHg 92%
    23:00 -5°C° 0 mm 6 mps 760 mmHg 91%

    24 February, Saturday

    Time Temperature Precipitation Wind Pressure Humidity
    00:00 -6°C° 0 mm 7 mps 759 mmHg 89%
    01:00 -5°C° 0 mm 8 mps 759 mmHg 87%
    02:00 -5°C° 0 mm 9 mps 758 mmHg 83%
    03:00 -5°C° 0 mm 10 mps 756 mmHg 80%
    04:00 -6°C° 0 mm 11 mps 755 mmHg 76%
    05:00 -6°C° 0.3 mm 11 mps 755 mmHg 82%
    06:00 -6°C° 0.3 mm 11 mps 754 mmHg 88%
    07:00 -6°C° 0.3 mm 11 mps 754 mmHg 94%
    08:00 -7°C° 1.4 mm 10 mps 753 mmHg 93%
    09:00 -6°C° 1.4 mm 9 mps 753 mmHg 92%
    10:00 -6°C° 1.4 mm 8 mps 752 mmHg 91%
    11:00 -4°C° 0.5 mm 7 mps 752 mmHg 85%
    12:00 -4°C° 0.5 mm 6 mps 751 mmHg 79%
    13:00 -2°C° 0.5 mm 5 mps 750 mmHg 73%
    14:00 -3°C° 0 mm 6 mps 749 mmHg 75%
    15:00 -4°C° 0 mm 6 mps 749 mmHg 76%
    16:00 -4°C° 0 mm 6 mps 748 mmHg 77%
    17:00 -4°C° 0 mm 6 mps 748 mmHg 81%
    18:00 -5°C° 0 mm 6 mps 748 mmHg 85%
    19:00 -6°C° 0 mm 6 mps 748 mmHg 89%
    20:00 -6°C° 0.2 mm 5 mps 748 mmHg 91%
    21:00 -6°C° 0.2 mm 5 mps 748 mmHg 92%
    22:00 -5°C° 0.2 mm 4 mps 748 mmHg 94%
    23:00 -7°C° 0.4 mm 5 mps 748 mmHg 94%
    Show more